Simultaneous Nadir Overpasses (SNOs) Predictions

Prediction of SNOs between AQUA and NOAA-19 Satellite Orbit:

Table of predicted SNOs for the next 14.0 days since TLE Epoch: 12/22/2012
Index Date (AQUA) Time (AQUA) Lat,Lon (AQUA) SZA (AQUA ) Date (NOAA-19) Time (NOAA-19) Lat,Lon (NOAA-19) SZA (NOAA-19 ) Distance(km) Time Diff (sec)
1 12/23/2012 04:02:21 46.06, -28.19 145.43 12/23/2012 04:01:25 45.90, -27.43 145.18 61.00 56
2 12/23/2012 04:51:18 -47.94, 140.16 35.87 12/23/2012 04:51:50 -47.86, 140.62 36.17 35.66 32
3 12/25/2012 08:46:41 46.00, -99.29 145.59 12/25/2012 08:45:54 45.89, -98.55 145.32 58.53 47
4 12/25/2012 09:35:29 -48.48, 69.29 36.13 12/25/2012 09:36:10 -48.42, 69.75 36.46 34.19 41
5 12/27/2012 13:31:01 46.03,-170.36 145.67 12/27/2012 13:30:23 45.92,-169.65 145.39 56.27 38
6 12/27/2012 14:19:41 -48.98, -1.59 36.41 12/27/2012 14:20:31 -48.93, -1.15 36.75 32.71 50
7 12/29/2012 17:53:04 51.60, -74.88 75.45 12/29/2012 17:51:51 51.48, -75.52 75.21 46.15 73
8 12/29/2012 19:03:53 -49.51, -72.46 36.75 12/29/2012 19:04:52 -49.43, -72.04 37.08 31.29 59
9 12/31/2012 22:36:56 49.86,-145.21 73.64 12/31/2012 22:35:51 49.78,-145.84 73.44 45.99 65
10 12/31/2012 23:48:06 -50.00,-143.34 37.11 12/31/2012 23:49:13 -49.94,-142.93 37.44 30.14 67
11 01/03/2013 03:21:11 49.46, 143.87 73.04 01/03/2013 03:20:13 49.33, 143.25 72.80 47.25 58
12 01/03/2013 04:31:37 -52.99, 146.91 39.45 01/03/2013 04:32:50 -52.93, 147.40 39.80 33.27 73
13 01/05/2013 08:05:25 48.98, 72.98 72.32 01/05/2013 08:04:35 48.89, 72.33 72.12 48.43 50




NCC Satellite Simultaneous Nadir Overpasses (SNOs) Prediction Service
